Regional Weather Roundup
Issued by NWS

Home | Current Version | Previous Version | Text Only | Print | Product List | Glossary Off
Versions: 1 2 3 4 5 6 7 8 9 10 11 12 13 14 15 16 17 18 19 20 21 22 23 24 25 26 27 28 29 30 31 32 33 34 35 36 37 38 39 40 41 42 43 44 45 46 47 48 49 50

000
ASUS43 KFSD 211910
RWRSD

WEATHER ROUNDUP FOR SOUTH DAKOTA
NATIONAL WEATHER SERVICE SIOUX FALLS SD
100 PM CST SAT JAN 21 2017

NOTE: "FAIR" INDICATES FEW OR NO CLOUDS BELOW 12,000 FEET WITH NO
SIGNIFICANT WEATHER AND/OR OBSTRUCTIONS TO VISIBILITY.


SDZ001>005-009-010-012>017-212000-
NORTHWEST AND NORTH CENTRAL SOUTH DAKOTA

CITY           SKY/WX    TMP DP  RH WIND       PRES   REMARKS
BUFFALO          N/A     33  27  78 W12       29.32S WCI  24
FAITH            N/A     33  29  85 NW14      29.36F WCI  23
MOBRIDGE       CLOUDY    29  25  85 NW6       29.35S WCI  23
$$

SDZ012>016-024>037-041>051-057-063-072>074-212000-
SOUTHWEST AND SOUTH CENTRAL SOUTH DAKOTA

CITY           SKY/WX    TMP DP  RH WIND       PRES   REMARKS
RAPID CTY ARPT SUNNY     39  31  72 S6        29.40R
PIERRE         CLOUDY    27  26  96 W3        29.37F FOG
CUSTER         CLOUDY    35  25  66 VRB6      29.36S
ELLSWORTH AFB  SUNNY     41  30  65 N10       29.39S
PHILIP         SUNNY     39  32  76 NW6       29.40R
PINE RIDGE     SUNNY     34  29  82 SW6       29.42F WCI  29
SPEARFISH      FAIR      37  28  70 NW9       29.40S
WINNER         FAIR      43  33  68 NW10      29.39S
$$

SDZ004>011-016>023-039-040-212000-
NORTHEAST SOUTH DAKOTA

CITY           SKY/WX    TMP DP  RH WIND       PRES   REMARKS
ABERDEEN       CLOUDY    31  26  82 SW3       29.38S
WATERTOWN      CLOUDY    34  34 100 S6        29.34F FOG     WCI  29
BROOKINGS      CLOUDY    33  32  96 W8        29.35S FOG     WCI  26
SISSETON         N/A     34  34 100 S7        29.37F WCI  28
$$

SDZ017-020-022-023-036>040-048>070-212000-
SOUTHEAST SOUTH DAKOTA

CITY           SKY/WX    TMP DP  RH WIND       PRES   REMARKS
SIOUX FALLS    CLOUDY    32  31  96 SW5       29.38F WCI  27
HURON          CLOUDY    30  28  92 NW6       29.39S WCI  24
CHAMBERLAIN    CLOUDY    33  31  92 W7        29.38F WCI  27
MITCHELL       CLOUDY    32  29  88 W8        29.40S WCI  25
YANKTON        CLOUDY    34  28  80 W9        29.40F WCI  26
$$

ABBREVIATIONS USED IN REMARKS
   TC - TEMPERATURE IN CELSIUS
  WCI - WIND CHILL INDEX
   HX - HEAT INDEX
  VSB - VISIBILITY




USA.gov is the U.S. government's official web portal to all federal, state and local government web resources and services.